Vorticity
8 11 10 11 10 10 9 6 7 10 6 4 6 7 7 7 6 6 6 6 6 6 5 5 5 8 6 8 7 8 8 6 4 5 4 4 4 4 4 4 3 4 4
13 12 14 10 9 14 14 13 11 8 11 10 8 6 6 6 6 6 6 6 6 6 7 6 6 8 7 7 6 8 7 7 5 4 4 4 2 4 4 4 3 2 3
9 14 16 17 12 10 10 13 13 13 11 9 9 8 7 7 7 7 6 6 7 7 8 8 8 7 7 7 7 8 7 6 7 5 3 5 4 5 5 2 1 4 3
6 7 9 17 14 10 9 10 11 11 12 12 11 11 10 10 10 10 10 10 10 9 7 6 6 8 7 8 11 14 9 5 5 6 5 4 5 5 5 6 7 4 2
4 6 7 9 11 16 18 12 4 3 3 5 5 6 7 7 7 7 7 7 6 6 6 6 6 7 5 6 8 7 5 5 4 5 6 5 5 3 3 5 8 7 2
14 12 11 6 3 4 9 9 11 11 10 10 8 8 8 7 7 7 6 6 5 6 5 4 4 4 1 2 4 6 7 7 7 6 6 8 8 9 4 4 6 4 5
12 8 10 10 9 8 11 12 11 8 6 6 7 7 6 5 4 3 3 2 2 4 5 6 7 7 6 6 9 8 2 1 7 10 9 6 5 6 6 6 4 3 4
12 11 8 6 7 9 7 5 4 3 3 4 5 7 8 7 7 6 6 7 7 8 8 7 6 7 7 6 5 3 4 5 5 4 5 6 5 5 6 6 5 7 4
6 3 6 6 5 7 6 4 7 7 8 9 10 10 8 8 7 6 5 4 4 5 5 6 5 5 5 5 5 4 5 5 6 7 7 7 7 5 5 4 5 5 6
6 6 4 7 8 7 5 4 8 7 5 4 6 7 7 8 8 8 8 8 7 6 4 4 4 5 5 5 5 6 10 8 11 9 7 7 8 6 5 5 6 5 5
4 3 7 6 3 6 6 5 7 6 4 6 8 7 6 5 4 4 4 4 5 7 8 10 12 12 12 12 11 8 4 5 1 5 9 4 9 7 9 15 13 7 6
2 8 6 5 4 6 6 6 10 10 4 4 13 11 7 4 3 3 3 3 5 8 7 6 6 5 4 2 4 4 6 10 11 12 9 11 8 9 7 8 8 15 21
5 6 5 5 5 5 6 9 9 4 -1 11 14 10 7 6 3 4 9 12 13 11 12 12 15 16 16 15 13 14 11 11 12 11 14 15 15 15 14 14 12 11 10
9 9 9 8 7 10 12 11 6 -1 12 10 2 9 12 15 17 18 15 11 9 9 12 13 15 14 15 11 7 9 7 3 3 5 9 11 12 16 12 10 12 14 12
12 10 8 11 17 12 15 4 2 -7 9 6 15 18 11 6 8 13 16 18 19 20 20 21 17 8 12 14 14 14 18 19 18 18 16 13 10 8 8 8 12 11 13
12 13 11 7 9 9 10 0 12 -3 11 18 8 11 15 16 20 22 18 15 15 16 17 17 17 18 19 17 16 15 15 18 14 12 9 14 11 13 16 15 12 11 9
15 9 4 2 10 7 4 5 3 21 12 20 16 19 26 18 16 14 15 17 17 19 20 20 20 21 24 27 30 30 31 33 33 36 39 36 33 30 27 26 26 24 26
9 -1 -9 20 16 9 12 2 16 19 13 24 23 18 15 14 17 17 16 16 16 14 16 19 22 24 24 22 19 19 18 20 20 19 20 25 29 30 25 24 25 25 20
9 16 20 1 4 20 25 17 19 26 22 17 15 16 16 15 14 13 14 14 12 16 19 15 11 16 20 16 15 16 15 12 10 9 8 8 11 15 16 19 22 25 27
10 1 9 29 13 10 16 22 21 17 17 16 16 15 14 13 12 11 13 10 13 13 11 15 15 14 19 11 6 9 14 16 19 19 20 21 18 9 10 13 13 17 17
19 9 10 18 21 24 24 22 20 17 15 12 13 12 11 12 10 10 10 11 13 11 16 11 19 11 8 18 23 19 17 18 18 18 17 19 23 23 23 7 5 10 13
27 21 17 15 21 18 18 15 15 11 9 11 10 7 5 5 8 10 10 13 10 15 10 21 10 11 19 18 16 14 19 15 17 19 19 15 12 20 24 27 18 12 11
16 14 14 17 16 13 11 13 9 8 10 8 4 2 3 4 1 11 12 12 12 12 18 11 13 19 15 16 13 12 10 10 12 12 15 14 17 23 11 18 25 19 11
16 14 16 16 13 9 10 10 9 7 8 6 3 3 2 2 6 5 12 16 12 8 20 8 17 15 14 14 11 15 25 27 27 23 22 22 20 16 17 21 12 21 24
18 15 15 11 12 10 7 8 8 6 5 3 3 2 3 5 5 8 12 14 14 13 11 12 13 13 19 14 27 19 17 12 10 10 11 14 18 20 18 16 16 20 16
15 13 16 15 14 12 11 10 10 9 8 8 7 7 9 10 8 9 13 14 13 15 7 13 13 9 10 27 15 10 14 16 15 15 15 16 16 14 14 18 19 15 17
Height
5741 5739 5736 5734 5733 5732 5731 5730 5730 5731 5731 5732 5732 5733 5733 5733 5732 5732 5732 5733 5734 5735 5736 5737 5737 5738 5738 5738 5739 5740 5741 5741 5742 5743 5744 5745 5745 5747 5747 5749 5749 5750 5751
5735 5732 5729 5727 5726 5724 5723 5723 5723 5723 5723 5723 5724 5724 5724 5723 5723 5722 5723 5723 5724 5725 5726 5727 5727 5727 5728 5728 5728 5729 5730 5732 5733 5733 5734 5735 5737 5738 5739 5740 5741 5742 5743
5728 5725 5723 5721 5719 5717 5716 5715 5715 5714 5713 5713 5713 5714 5714 5713 5713 5712 5713 5713 5713 5713 5714 5714 5715 5716 5716 5717 5717 5717 5718 5719 5721 5723 5723 5724 5726 5727 5729 5731 5731 5733 5735
5723 5720 5716 5714 5713 5711 5709 5708 5707 5706 5705 5705 5704 5704 5704 5703 5703 5702 5701 5702 5702 5702 5701 5701 5701 5702 5703 5704 5704 5704 5705 5706 5708 5711 5712 5712 5714 5715 5717 5718 5720 5722 5724
5717 5713 5710 5707 5705 5703 5702 5701 5699 5698 5697 5696 5695 5694 5693 5692 5691 5690 5690 5689 5688 5688 5688 5688 5688 5688 5689 5691 5691 5692 5693 5693 5694 5696 5699 5700 5701 5703 5705 5706 5707 5709 5711
5709 5706 5702 5700 5697 5695 5693 5691 5689 5688 5687 5686 5685 5684 5682 5681 5680 5679 5678 5677 5676 5675 5674 5674 5674 5673 5674 5674 5676 5677 5678 5679 5680 5681 5682 5684 5687 5689 5692 5695 5697 5697 5696
5699 5697 5695 5692 5689 5686 5683 5682 5680 5678 5677 5675 5673 5671 5670 5668 5667 5666 5665 5664 5662 5662 5661 5660 5659 5658 5658 5658 5658 5660 5661 5661 5663 5664 5666 5667 5669 5672 5674 5678 5682 5684 5684
5688 5686 5684 5682 5679 5676 5674 5672 5669 5667 5664 5663 5661 5660 5658 5656 5654 5652 5651 5649 5648 5646 5645 5644 5642 5642 5641 5641 5640 5639 5640 5642 5642 5644 5646 5647 5649 5652 5656 5659 5662 5668 5670
5677 5675 5672 5671 5668 5666 5663 5661 5658 5655 5653 5651 5649 5646 5643 5641 5639 5636 5634 5632 5630 5628 5626 5625 5623 5622 5620 5620 5619 5618 5618 5619 5620 5621 5624 5626 5627 5629 5633 5636 5641 5646 5653
5664 5662 5659 5656 5654 5652 5649 5647 5644 5641 5639 5636 5633 5630 5627 5624 5621 5619 5616 5613 5610 5608 5605 5603 5602 5600 5598 5597 5597 5596 5595 5597 5596 5598 5599 5600 5603 5607 5609 5614 5617 5622 5629
5651 5648 5645 5642 5640 5637 5633 5631 5628 5625 5623 5620 5617 5614 5611 5608 5604 5601 5597 5595 5592 5589 5586 5583 5581 5579 5576 5574 5574 5573 5573 5574 5574 5574 5576 5577 5576 5580 5582 5585 5591 5597 5603
5636 5632 5628 5625 5623 5620 5617 5614 5612 5609 5606 5603 5600 5595 5591 5588 5584 5581 5577 5574 5571 5568 5565 5562 5559 5556 5554 5552 5550 5550 5549 5550 5551 5549 5549 5551 5550 5553 5555 5558 5562 5569 5576
5620 5616 5612 5608 5604 5601 5597 5594 5592 5590 5586 5583 5580 5577 5573 5570 5566 5562 5558 5553 5550 5546 5541 5538 5535 5532 5529 5527 5524 5523 5522 5522 5521 5521 5522 5523 5522 5525 5525 5527 5533 5539 5545
5603 5599 5594 5590 5587 5583 5580 5577 5574 5571 5568 5564 5561 5557 5553 5549 5544 5539 5534 5530 5526 5523 5519 5514 5511 5507 5505 5502 5499 5498 5497 5496 5495 5496 5495 5495 5495 5497 5499 5501 5505 5510 5516
5584 5580 5576 5572 5569 5566 5563 5559 5555 5552 5548 5544 5540 5535 5530 5525 5520 5516 5512 5508 5504 5500 5496 5493 5489 5485 5481 5478 5474 5471 5470 5469 5469 5469 5469 5469 5469 5470 5472 5474 5478 5480 5486
5566 5563 5559 5556 5553 5549 5546 5542 5537 5532 5529 5524 5520 5514 5509 5504 5499 5494 5490 5486 5482 5477 5473 5468 5464 5460 5456 5452 5448 5445 5443 5443 5442 5443 5443 5442 5441 5442 5443 5445 5448 5452 5457
5550 5547 5544 5540 5536 5532 5528 5523 5519 5516 5511 5506 5501 5495 5491 5487 5482 5478 5473 5467 5463 5458 5453 5447 5442 5437 5431 5426 5421 5418 5414 5415 5415 5414 5413 5412 5412 5411 5412 5414 5417 5422 5426
5534 5530 5526 5523 5518 5514 5510 5505 5501 5497 5492 5487 5482 5479 5475 5471 5466 5461 5456 5451 5446 5441 5435 5429 5422 5417 5412 5406 5402 5398 5394 5393 5392 5390 5387 5386 5385 5385 5385 5387 5390 5394 5399
5518 5513 5509 5506 5501 5497 5492 5487 5482 5479 5474 5470 5466 5463 5460 5457 5452 5447 5441 5436 5431 5425 5418 5412 5407 5402 5397 5391 5387 5382 5378 5376 5374 5370 5368 5367 5367 5366 5365 5363 5368 5372 5376
5499 5496 5494 5488 5483 5479 5475 5471 5467 5463 5460 5457 5454 5451 5447 5443 5438 5433 5427 5421 5414 5409 5404 5398 5392 5387 5382 5376 5370 5366 5361 5358 5354 5351 5350 5347 5346 5348 5348 5346 5349 5354 5358
5481 5478 5474 5471 5467 5463 5460 5457 5453 5450 5446 5444 5442 5438 5434 5430 5424 5418 5412 5407 5401 5396 5390 5385 5378 5372 5366 5361 5354 5348 5343 5339 5337 5334 5332 5330 5327 5328 5329 5330 5332 5338 5339
5465 5462 5458 5455 5452 5449 5446 5443 5440 5438 5435 5433 5430 5426 5422 5417 5412 5406 5400 5394 5388 5382 5376 5370 5364 5357 5351 5345 5339 5334 5330 5325 5321 5319 5317 5315 5313 5312 5312 5313 5316 5320 5322
5452 5447 5444 5440 5438 5436 5434 5432 5430 5427 5424 5421 5418 5414 5410 5405 5399 5394 5388 5382 5375 5369 5363 5358 5352 5346 5338 5331 5324 5319 5315 5312 5308 5305 5303 5301 5299 5298 5297 5298 5298 5302 5306
5439 5435 5432 5429 5426 5424 5423 5422 5419 5416 5413 5410 5406 5403 5399 5394 5388 5382 5376 5370 5364 5357 5351 5346 5341 5334 5327 5320 5312 5306 5301 5298 5295 5292 5289 5287 5286 5286 5285 5284 5284 5286 5290
5427 5424 5421 5418 5416 5414 5412 5410 5408 5405 5402 5398 5395 5391 5388 5382 5377 5370 5363 5357 5351 5345 5340 5335 5330 5323 5318 5310 5302 5297 5292 5288 5285 5280 5279 5277 5274 5273 5272 5271 5271 5271 5274
5417 5414 5411 5408 5406 5404 5401 5399 5396 5394 5390 5387 5383 5379 5375 5370 5365 5359 5353 5344 5340 5334 5328 5322 5317 5313 5306 5300 5294 5290 5285 5280 5274 5271 5268 5266 5263 5261 5259 5258 5258 5258 5259